ND5T-1 Weather Reports


Display with metric or nautical units.
time (UTC)temp
F
wind
direction
speed
MPH
gust
MPH
rain 1hr
in
rain 24hr
in
rain mn
in
humidity
%
barometer
mb
20210614173320 90 0.0 0.0 0.00 0.00 0.00 63 1014.8
20210614172333 90 0.0 0.0 0.00 0.00 0.00 61 1014.8
20210614171330 90 0.0 0.0 0.00 0.00 0.00 58 1014.8
20210614170323 89 0.0 0.0 0.00 0.00 0.00 60 1014.9
20210614165328 89 0.0 0.0 0.00 0.00 0.00 63 1014.9
20210614164323 88 0.0 0.0 0.00 0.00 0.00 63 1014.8
20210614163318 87 0.0 0.0 0.00 0.00 0.00 64 1014.7
20210614162318 87 0.0 0.0 0.00 0.00 0.00 65 1014.7
20210614161317 87 0.0 0.0 0.00 0.00 0.00 65 1014.6
20210614160318 86 0.0 0.0 0.00 0.00 0.00 65 1014.6
20210614155333 86 0.0 0.0 0.00 0.00 0.00 64 1014.6
20210614154332 85 0.0 0.0 0.00 0.00 0.00 64 1014.5
20210614153326 84 0.0 0.0 0.00 0.00 0.00 58 1014.5
20210614152327 84 0.0 0.0 0.00 0.00 0.00 55 1014.6
20210614151321 83 0.0 0.0 0.00 0.00 0.00 55 1014.6
20210614150336 82 0.0 0.0 0.00 0.00 0.00 50 1014.6
20210614145325 81 0.0 0.0 0.00 0.00 0.00 46 1014.6
20210614144323 80 0.0 0.0 0.00 0.00 0.00 41 1014.6
20210614143320 79 0.0 0.0 0.00 0.00 0.00 29 1014.5
20210614142339 78 0.0 0.0 0.00 0.00 0.00 6 1014.6
20210614141319 76 0.0 0.0 0.00 0.00 0.00 1 1014.5
20210614140325 76 0.0 0.0 0.00 0.00 0.00 1 1014.5
20210614135333 75 0.0 0.0 0.00 0.00 0.00 1 1014.6
20210614134334 75 0.0 0.0 0.00 0.00 0.00 1 1014.5
20210614133319 74 0.0 0.0 0.00 0.00 0.00 1 1014.4
20210614132319 74 0.0 0.0 0.00 0.00 0.00 1 1014.4
20210614131336 73 0.0 0.0 0.00 0.00 0.00 1 1014.5
20210614130321 72 0.0 0.0 0.00 0.00 0.00 1 1014.3
20210614125335 72 0.0 0.0 0.00 0.00 0.00 1 1014.3
20210614124319 72 0.0 0.0 0.00 0.00 0.00 1 1014.3
20210614123324 72 0.0 0.0 0.00 0.00 0.00 1 1014.3
20210614122327 72 0.0 0.0 0.00 0.00 0.00 1 1014.1
20210614121327 72 0.0 0.0 0.00 0.00 0.00 1 1014.1
20210614120327 72 0.0 0.0 0.00 0.00 0.00 1 1014.1
20210614115331 72 0.0 0.0 0.00 0.00 0.00 1 1014.3
20210614114330 72 0.0 0.0 0.00 0.00 0.00 1 1014.1
20210614113327 72 0.0 0.0 0.00 0.00 0.00 1 1014.0
20210614112324 73 0.0 0.0 0.00 0.00 0.00 1 1013.9
20210614111320 73 0.0 0.0 0.00 0.00 0.00 1 1013.8
20210614110321 74 0.0 0.0 0.00 0.00 0.00 1 1013.5
20210614105331 74 0.0 0.0 0.00 0.00 0.00 5 1013.6
20210614104330 74 0.0 0.0 0.00 0.00 0.00 10 1013.7
20210614103331 75 0.0 0.0 0.00 0.00 0.00 12 1013.7
20210614102331 75 0.0 0.0 0.00 0.00 0.00 17 1013.5
20210614101329 75 0.0 0.0 0.00 0.00 0.00 16 1013.6
20210614100331 75 0.0 0.0 0.00 0.00 0.00 19 1013.9
20210614095327 75 0.0 0.0 0.00 0.00 0.00 15 1013.7
20210614094329 75 0.0 0.0 0.00 0.00 0.00 13 1013.7
20210614093329 75 0.0 0.0 0.00 0.00 0.00 13 1013.3
20210614092334 75 0.0 0.0 0.00 0.00 0.00 13 1012.8
20210614091316 76 0.0 0.0 0.00 0.00 0.00 18 1012.5
20210614090334 76 0.0 0.0 0.00 0.00 0.00 15 1011.9
20210614085329 76 0.0 0.0 0.00 0.00 0.00 12 1011.9
20210614084326 76 0.0 0.0 0.00 0.00 0.00 8 1011.7
20210614083334 76 0.0 0.0 0.00 0.00 0.00 11 1012.0
20210614082328 77 0.0 0.0 0.00 0.00 0.00 21 1012.5
20210614081324 77 0.0 0.0 0.00 0.00 0.00 26 1012.9
20210614080323 78 0.0 0.0 0.00 0.00 0.00 33 1012.9
20210614075330 78 0.0 0.0 0.00 0.00 0.00 33 1012.7
20210614074326 78 0.0 0.0 0.00 0.00 0.00 30 1013.3
20210614073328 78 0.0 0.0 0.00 0.00 0.00 38 1013.6
20210614072323 77 0.0 0.0 0.00 0.00 0.00 23 1014.0
20210614071321 77 0.0 0.0 0.00 0.00 0.00 1 1014.3
20210614070321 79 0.0 0.0 0.00 0.00 0.00 1 1014.4
20210614065329 79 0.0 0.0 0.00 0.00 0.00 1 1013.9
20210614064330 79 0.0 0.0 0.00 0.00 0.00 1 1014.0
20210614063327 79 0.0 0.0 0.00 0.00 0.00 1 1014.1
20210614062326 79 0.0 0.0 0.00 0.00 0.00 1 1014.1
20210614061325 79 0.0 0.0 0.00 0.00 0.00 1 1014.1
20210614060327 79 0.0 0.0 0.00 0.00 0.00 1 1014.0
20210614055326 79 0.0 0.0 0.00 0.00 0.00 1 1014.1
20210614054330 79 0.0 0.0 0.00 0.00 0.00 1 1014.0
20210614053329 79 0.0 0.0 0.00 0.00 0.00 1 1014.0
20210614052329 79 0.0 0.0 0.00 0.00 0.00 1 1014.1
20210614051332 79 0.0 0.0 0.00 0.00 0.00 1 1013.9
20210614050337 80 0.0 0.0 0.00 0.00 0.00 1 1014.0
20210614045322 80 0.0 0.0 0.00 0.00 0.00 1 1013.9
20210614044327 80 0.0 0.0 0.00 0.00 0.00 1 1013.8
20210614043330 80 0.0 0.0 0.00 0.00 0.00 1 1013.7
20210614042335 80 0.0 0.0 0.00 0.00 0.00 1 1013.5
20210614041320 80 0.0 0.0 0.00 0.00 0.00 1 1013.3
20210614040325 80 0.0 0.0 0.00 0.00 0.00 1 1012.9
20210614035319 80 0.0 0.0 0.00 0.00 0.00 1 1012.7
20210614034329 80 0.0 0.0 0.00 0.00 0.00 1 1012.4
20210614033323 80 0.0 0.0 0.00 0.00 0.00 1 1012.3
20210614032319 80 0.0 0.0 0.00 0.00 0.00 1 1012.3
20210614031333 80 0.0 0.0 0.00 0.00 0.00 1 1012.0
20210614030320 81 0.0 0.0 0.00 0.00 0.00 1 1011.9
20210614025334 81 0.0 0.0 0.00 0.00 0.00 1 1012.1
20210614024320 81 0.0 0.0 0.00 0.00 0.00 1 1012.1
20210614023316 82 0.0 0.0 0.00 0.00 0.00 1 1012.1
20210614022330 82 0.0 0.0 0.00 0.00 0.00 1 1012.1
20210614021326 83 0.0 0.0 0.00 0.00 0.00 8 1012.0
20210614020321 83 0.0 0.0 0.00 0.00 0.00 16 1012.1
20210614015330 84 0.0 0.0 0.00 0.00 0.00 20 1012.1
20210614014324 85 0.0 0.0 0.00 0.00 0.00 30 1012.0
20210614013339 85 0.0 0.0 0.00 0.00 0.00 44 1012.0
20210614012326 86 0.0 0.0 0.00 0.00 0.00 47 1011.8
20210614011321 86 0.0 0.0 0.00 0.00 0.00 54 1011.8
20210614010315 87 0.0 0.0 0.00 0.00 0.00 57 1011.8
20210614005323 88 0.0 0.0 0.00 0.00 0.00 62 1011.7
20210614004318 88 0.0 0.0 0.00 0.00 0.00 64 1011.6
20210614003332 89 0.0 0.0 0.00 0.00 0.00 64 1011.7
20210614002328 89 0.0 0.0 0.00 0.00 0.00 65 1011.6
20210614001315 90 0.0 0.0 0.00 0.00 0.00 66 1011.7
20210614000331 90 0.0 0.0 0.00 0.00 0.00 66 1011.6
20210613235318 90 0.0 0.0 0.00 0.00 0.00 66 1011.6
20210613234314 90 0.0 0.0 0.00 0.00 0.00 65 1011.6
20210613233329 90 0.0 0.0 0.00 0.00 0.00 65 1011.6
20210613232323 91 0.0 0.0 0.00 0.00 0.00 66 1011.8
20210613231319 91 0.0 0.0 0.00 0.00 0.00 64 1011.7
20210613230332 91 0.0 0.0 0.00 0.00 0.00 65 1011.7
20210613225320 91 0.0 0.0 0.00 0.00 0.00 64 1011.7
20210613224335 91 0.0 0.0 0.00 0.00 0.00 65 1011.8
20210613223321 92 0.0 0.0 0.00 0.00 0.00 64 1011.9
20210613222316 92 0.0 0.0 0.00 0.00 0.00 65 1012.0
20210613221330 92 0.0 0.0 0.00 0.00 0.00 64 1012.0
20210613220323 92 0.0 0.0 0.00 0.00 0.00 61 1012.0
20210613215332 92 0.0 0.0 0.00 0.00 0.00 61 1012.1
20210613214324 93 0.0 0.0 0.00 0.00 0.00 63 1012.2
20210613213337 93 0.0 0.0 0.00 0.00 0.00 65 1012.3
20210613212332 93 0.0 0.0 0.00 0.00 0.00 64 1012.4
20210613211317 94 0.0 0.0 0.00 0.00 0.00 63 1012.6
20210613210314 95 0.0 0.0 0.00 0.00 0.00 60 1012.7
20210613205318 95 0.0 0.0 0.00 0.00 0.00 61 1012.9
20210613204333 94 0.0 0.0 0.00 0.00 0.00 63 1012.9
20210613203326 95 0.0 0.0 0.00 0.00 0.00 60 1013.1
20210613202322 96 0.0 0.0 0.00 0.00 0.00 59 1013.2
20210613201333 96 0.0 0.0 0.00 0.00 0.00 62 1013.2
20210613200319 95 0.0 0.0 0.00 0.00 0.00 61 1013.3
20210613195337 94 0.0 0.0 0.00 0.00 0.00 59 1013.4
20210613194321 95 0.0 0.0 0.00 0.00 0.00 60 1013.4
20210613193315 95 0.0 0.0 0.00 0.00 0.00 60 1013.4
20210613192330 95 0.0 0.0 0.00 0.00 0.00 59 1013.5
20210613191324 94 0.0 0.0 0.00 0.00 0.00 61 1013.6
20210613190316 94 0.0 0.0 0.00 0.00 0.00 64 1013.8
20210613185332 93 0.0 0.0 0.00 0.00 0.00 65 1014.0
20210613184327 93 0.0 0.0 0.00 0.00 0.00 63 1014.1
20210613183331 93 0.0 0.0 0.00 0.00 0.00 64 1014.3
20210613182326 93 0.0 0.0 0.00 0.00 0.00 64 1014.3
20210613181338 93 0.0 0.0 0.00 0.00 0.00 64 1014.5
20210613180333 92 0.0 0.0 0.00 0.00 0.00 66 1014.7
20210613175340 92 0.0 0.0 0.00 0.00 0.00 65 1014.9
20210613174336 90 0.0 0.0 0.00 0.00 0.00 65 1015.0